パンスターズ彗星

P/2018 P4 ( PanSTARRS )

English version
Home page
Updated on February 9, 2019

---------------------------------------------------------------------

・ プロフィール

発見日 2018年8月8日
発見光度 20.6等
発見者 Pan-STARRS 1 telescope (Haleakala)

・ 写真集

・ 軌道要素

Epoch 2018 Nov. 18.0 TT = JDT 2458440.5
T 2018 Nov. 7.32016 TT                                  MPCW
q   3.6661521            (2000.0)            P               Q
n   0.05736758     Peri.    8.11141     +0.99841422     -0.03085137
a   6.6582235      Node   353.11021     -0.01278530     +0.69032399
e   0.4493798      Incl.   23.11181     +0.05482309     +0.72284230
P  17.18
From 99 observations 2018 July 10-Oct. 15, mean residual 0".4.

・ 光度変化

        m1 = 11.0 + 5 logΔ + 10.0 log r

---------------------------------------------------------------------

軌道要素はM.P.E.C. 2018-U70に掲載されたものです。
光度グラフはComet for Windowsで作成したものです。

---------------------------------------------------------------------

Copyright(C) Seiichi Yoshida (comet@aerith.net). All rights reserved.